User: anonymous   Login
Location: Allos
(44.2333°N, 6.6333°E)
Time: 16:23:46
(UTC+00:00)
Language:

OBJECT F - Orbit

View from above orbital plane
View from above orbital plane
View from above satellite
View from above satellite

Ground track
Ground track

The orbit data is extracted from the following two-line orbital elements,

1 44884U 19093F   21175.52311382  .00000298  00000-0  44184-4 0  9995
2 44884  97.9242 254.5765 0012165 276.3226  83.6611 14.82066236 81800
Epoch (UTC): 24 June 2021 12:33:17
Eccentricity: 0.0012165
inclination: 97.9242°
perigee height: 614 km
apogee height: 631 km
right ascension of ascending node: 254.5765°
argument of perigee: 276.3226°
revolutions per day: 14.82066236
mean anomaly at epoch: 83.6611°
orbit number at epoch: 8180

The dashed part of the orbit path shows where the satellite is in the earth's shadow,  

DLR